| time (UTC) | temp F | wind direction | speed MPH | gust MPH | rain 1hr in | rain 24hr in | rain mn in | humidity % | barometer mb |
| 20260504035007 | 49 | 136 | 3.0 | 8.0 | 0.00 | 0.00 | 0.00 | 71 | 1012.4 |
| 20260504034537 | 49 | 134 | 2.0 | 5.0 | 0.00 | 0.00 | 0.00 | 72 | 1012.4 |
| 20260504034007 | 49 | 162 | 1.0 | 5.0 | 0.00 | 0.00 | 0.00 | 73 | 1012.5 |
| 20260504033503 | 49 | 190 | 1.0 | 4.0 | 0.00 | 0.00 | 0.00 | 73 | 1012.6 |
| 20260504033009 | 49 | 178 | 1.0 | 5.0 | 0.00 | 0.00 | 0.00 | 74 | 1012.6 |
| 20260504032504 | 49 | 138 | 1.0 | 5.0 | 0.00 | 0.00 | 0.00 | 75 | 1012.6 |
| 20260504032004 | 48 | 146 | 2.0 | 3.0 | 0.00 | 0.00 | 0.00 | 76 | 1012.6 |
| 20260504031517 | 48 | 150 | 1.0 | 4.0 | 0.00 | 0.00 | 0.00 | 76 | 1012.7 |
| 20260504031004 | 48 | 146 | 2.0 | 4.0 | 0.00 | 0.00 | 0.00 | 77 | 1012.7 |
| 20260504030504 | 48 | 139 | 1.0 | 3.0 | 0.00 | 0.00 | 0.00 | 77 | 1012.7 |
| 20260504030037 | 48 | 213 | 0.0 | 3.0 | 0.00 | 0.00 | 0.00 | 77 | 1012.8 |
| 20260504025512 | 48 | 167 | 1.0 | 5.0 | 0.00 | 0.00 | 0.00 | 77 | 1012.8 |
| 20260504025009 | 48 | 148 | 0.0 | 5.0 | 0.00 | 0.00 | 0.00 | 77 | 1012.9 |
| 20260504024526 | 48 | 143 | 1.0 | 4.0 | 0.00 | 0.00 | 0.00 | 76 | 1012.9 |
| 20260504024012 | 48 | 151 | 2.0 | 4.0 | 0.00 | 0.00 | 0.00 | 76 | 1012.9 |
| 20260504023509 | 48 | 165 | 2.0 | 3.0 | 0.00 | 0.00 | 0.00 | 76 | 1012.9 |
| 20260504023028 | 48 | 175 | 1.0 | 4.0 | 0.00 | 0.00 | 0.00 | 76 | 1012.9 |
| 20260504022509 | 48 | 141 | 2.0 | 6.0 | 0.00 | 0.00 | 0.00 | 75 | 1013.0 |
| 20260504022005 | 48 | 150 | 1.0 | 7.0 | 0.00 | 0.00 | 0.00 | 76 | 1012.9 |
| 20260504021510 | 48 | 74 | 2.0 | 7.0 | 0.00 | 0.00 | 0.00 | 76 | 1013.0 |
| 20260504021004 | 48 | 143 | 1.0 | 4.0 | 0.00 | 0.00 | 0.00 | 76 | 1013.1 |
| 20260504020508 | 48 | 188 | 1.0 | 5.0 | 0.00 | 0.00 | 0.00 | 76 | 1013.2 |
| 20260504020017 | 48 | 161 | 3.0 | 6.0 | 0.00 | 0.00 | 0.00 | 75 | 1013.2 |
| 20260504015504 | 48 | 188 | 0.0 | 6.0 | 0.00 | 0.00 | 0.00 | 74 | 1013.1 |
| 20260504015004 | 48 | 266 | 3.0 | 9.0 | 0.00 | 0.00 | 0.00 | 74 | 1013.1 |
| 20260504014534 | 48 | 127 | 4.0 | 8.0 | 0.00 | 0.00 | 0.00 | 74 | 1012.9 |
| 20260504014012 | 48 | 143 | 4.0 | 8.0 | 0.00 | 0.00 | 0.00 | 75 | 1012.9 |
| 20260504013508 | 48 | 136 | 2.0 | 6.0 | 0.00 | 0.00 | 0.00 | 75 | 1013.0 |
| 20260504013027 | 48 | 121 | 2.0 | 6.0 | 0.00 | 0.00 | 0.00 | 75 | 1013.1 |
| 20260504012508 | 48 | 143 | 2.0 | 6.0 | 0.00 | 0.00 | 0.00 | 76 | 1013.2 |
| 20260504012009 | 48 | 127 | 1.0 | 5.0 | 0.00 | 0.00 | 0.00 | 76 | 1013.3 |
| 20260504011527 | 48 | 126 | 3.0 | 6.0 | 0.00 | 0.00 | 0.00 | 76 | 1013.2 |
| 20260504011009 | 48 | 142 | 2.0 | 6.0 | 0.00 | 0.00 | 0.00 | 76 | 1013.2 |
| 20260504010504 | 48 | 135 | 1.0 | 7.0 | 0.00 | 0.00 | 0.00 | 75 | 1013.2 |
| 20260504010020 | 48 | 154 | 2.0 | 7.0 | 0.00 | 0.00 | 0.00 | 75 | 1013.1 |
| 20260504005505 | 48 | 179 | 0.0 | 4.0 | 0.00 | 0.00 | 0.00 | 75 | 1013.1 |
| 20260504005005 | 48 | 104 | 2.0 | 4.0 | 0.00 | 0.00 | 0.00 | 75 | 1013.0 |
| 20260504004518 | 48 | 140 | 1.0 | 4.0 | 0.00 | 0.00 | 0.00 | 75 | 1013.0 |
| 20260504004004 | 48 | 161 | 0.0 | 3.0 | 0.00 | 0.00 | 0.00 | 75 | 1013.0 |
| 20260504003508 | 48 | 144 | 1.0 | 3.0 | 0.00 | 0.00 | 0.00 | 75 | 1013.1 |
| 20260504003030 | 48 | 123 | 1.0 | 3.0 | 0.00 | 0.00 | 0.00 | 75 | 1013.0 |
| 20260504002508 | 48 | 134 | 2.0 | 3.0 | 0.00 | 0.00 | 0.00 | 75 | 1013.1 |
| 20260504002008 | 48 | 144 | 1.0 | 3.0 | 0.00 | 0.00 | 0.00 | 75 | 1013.0 |
| 20260504001526 | 48 | 142 | 2.0 | 3.0 | 0.00 | 0.00 | 0.00 | 76 | 1013.0 |
| 20260504001009 | 48 | 113 | 1.0 | 4.0 | 0.00 | 0.00 | 0.00 | 76 | 1013.1 |
| 20260504000507 | 48 | 133 | 1.0 | 4.0 | 0.00 | 0.00 | 0.00 | 76 | 1013.2 |
| 20260504000030 | 48 | 150 | 2.0 | 4.0 | 0.00 | 0.00 | 0.00 | 77 | 1013.3 |
| 20260503235504 | 48 | 161 | 3.0 | 6.0 | 0.00 | 0.00 | 0.00 | 77 | 1013.3 |
| 20260503235008 | 48 | 129 | 3.0 | 5.0 | 0.00 | 0.00 | 0.00 | 76 | 1013.4 |
| 20260503234529 | 48 | 112 | 1.0 | 4.0 | 0.00 | 0.00 | 0.00 | 76 | 1013.5 |
| 20260503234007 | 48 | 121 | 2.0 | 3.0 | 0.00 | 0.00 | 0.00 | 77 | 1013.6 |
| 20260503233507 | 48 | 141 | 1.0 | 4.0 | 0.00 | 0.00 | 0.00 | 76 | 1013.6 |
| 20260503233021 | 48 | 146 | 1.0 | 8.0 | 0.00 | 0.00 | 0.00 | 76 | 1013.7 |
| 20260503232511 | 48 | 205 | 2.0 | 10.0 | 0.00 | 0.00 | 0.00 | 75 | 1013.9 |
| 20260503232010 | 49 | 173 | 4.0 | 11.0 | 0.00 | 0.00 | 0.00 | 74 | 1014.2 |
| 20260503231527 | 49 | 165 | 3.0 | 17.0 | 0.00 | 0.00 | 0.00 | 73 | 1014.3 |
| 20260503231014 | 50 | 196 | 8.0 | 20.0 | 0.00 | 0.00 | 0.00 | 70 | 1014.5 |
| 20260503230511 | 50 | 196 | 8.0 | 20.0 | 0.00 | 0.00 | 0.00 | 69 | 1014.5 |
| 20260503230030 | 50 | 173 | 6.0 | 17.0 | 0.00 | 0.00 | 0.00 | 67 | 1014.2 |
| 20260503225510 | 51 | 165 | 7.0 | 20.0 | 0.00 | 0.00 | 0.00 | 65 | 1014.3 |
| 20260503225010 | 51 | 213 | 6.0 | 20.0 | 0.00 | 0.00 | 0.00 | 63 | 1014.2 |
| 20260503224529 | 52 | 254 | 6.0 | 20.0 | 0.00 | 0.00 | 0.00 | 61 | 1014.1 |
| 20260503224004 | 53 | 149 | 5.0 | 20.0 | 0.00 | 0.00 | 0.00 | 59 | 1014.2 |
| 20260503223506 | 54 | 212 | 6.0 | 17.0 | 0.00 | 0.00 | 0.00 | 55 | 1014.0 |
| 20260503223024 | 55 | 311 | 6.0 | 19.0 | 0.00 | 0.00 | 0.00 | 51 | 1014.1 |
| 20260503222508 | 55 | 288 | 8.0 | 24.0 | 0.00 | 0.00 | 0.00 | 48 | 1014.0 |
| 20260503222007 | 56 | 178 | 5.0 | 24.0 | 0.00 | 0.00 | 0.00 | 46 | 1013.9 |
| 20260503221524 | 57 | 171 | 7.0 | 16.0 | 0.00 | 0.00 | 0.00 | 41 | 1013.8 |
| 20260503221012 | 58 | 202 | 5.0 | 12.0 | 0.00 | 0.00 | 0.00 | 41 | 1013.7 |
| 20260503220511 | 58 | 136 | 4.0 | 17.0 | 0.00 | 0.00 | 0.00 | 42 | 1013.6 |
| 20260503220007 | 58 | 206 | 5.0 | 17.0 | 0.00 | 0.00 | 0.00 | 42 | 1013.5 |
| 20260503215507 | 58 | 188 | 5.0 | 18.0 | 0.00 | 0.00 | 0.00 | 40 | 1013.5 |
| 20260503215005 | 58 | 172 | 6.0 | 18.0 | 0.00 | 0.00 | 0.00 | 39 | 1013.6 |
| 20260503214514 | 58 | 154 | 4.0 | 16.0 | 0.00 | 0.00 | 0.00 | 41 | 1013.7 |
| 20260503214004 | 58 | 170 | 6.0 | 16.0 | 0.00 | 0.00 | 0.00 | 39 | 1013.6 |
| 20260503213505 | 58 | 184 | 7.0 | 17.0 | 0.00 | 0.00 | 0.00 | 40 | 1013.7 |
| 20260503213018 | 59 | 194 | 4.0 | 17.0 | 0.00 | 0.00 | 0.00 | 40 | 1013.7 |
| 20260503212507 | 59 | 285 | 5.0 | 13.0 | 0.00 | 0.00 | 0.00 | 40 | 1013.7 |
| 20260503212008 | 59 | 210 | 5.0 | 13.0 | 0.00 | 0.00 | 0.00 | 39 | 1013.7 |
| 20260503211524 | 59 | 318 | 3.0 | 18.0 | 0.00 | 0.00 | 0.00 | 40 | 1013.8 |
| 20260503211000 | 59 | 175 | 5.0 | 18.0 | 0.00 | 0.00 | 0.00 | 41 | 1013.9 |
| 20260503210504 | 59 | 193 | 7.0 | 19.0 | 0.00 | 0.00 | 0.00 | 38 | 1013.8 |
| 20260503210007 | 59 | 149 | 6.0 | 19.0 | 0.00 | 0.00 | 0.00 | 38 | 1013.9 |
| 20260503205503 | 59 | 165 | 4.0 | 17.0 | 0.00 | 0.00 | 0.00 | 39 | 1014.0 |
| 20260503205005 | 59 | 209 | 3.0 | 16.0 | 0.00 | 0.00 | 0.00 | 38 | 1013.9 |
| 20260503204512 | 59 | 196 | 5.0 | 16.0 | 0.00 | 0.00 | 0.00 | 38 | 1014.1 |
| 20260503204008 | 60 | 143 | 5.0 | 10.0 | 0.00 | 0.00 | 0.00 | 40 | 1014.1 |
| 20260503203508 | 59 | 250 | 3.0 | 14.0 | 0.00 | 0.00 | 0.00 | 40 | 1014.2 |
| 20260503203021 | 59 | 191 | 6.0 | 16.0 | 0.00 | 0.00 | 0.00 | 38 | 1014.2 |
| 20260503202505 | 59 | 148 | 7.0 | 16.0 | 0.00 | 0.00 | 0.00 | 39 | 1014.3 |
| 20260503202009 | 60 | 97 | 7.0 | 14.0 | 0.00 | 0.00 | 0.00 | 39 | 1014.3 |
| 20260503201522 | 60 | 140 | 5.0 | 14.0 | 0.00 | 0.00 | 0.00 | 37 | 1014.3 |
| 20260503201008 | 60 | 223 | 5.0 | 13.0 | 0.00 | 0.00 | 0.00 | 39 | 1014.3 |
| 20260503200508 | 60 | 213 | 7.0 | 13.0 | 0.00 | 0.00 | 0.00 | 37 | 1014.4 |
| 20260503200004 | 60 | 155 | 3.0 | 19.0 | 0.00 | 0.00 | 0.00 | 37 | 1014.4 |
| 20260503195503 | 60 | 184 | 6.0 | 19.0 | 0.00 | 0.00 | 0.00 | 37 | 1014.5 |
| 20260503195005 | 60 | 126 | 7.0 | 19.0 | 0.00 | 0.00 | 0.00 | 40 | 1014.4 |
| 20260503194510 | 60 | 197 | 4.0 | 11.0 | 0.00 | 0.00 | 0.00 | 39 | 1014.5 |
| 20260503194004 | 59 | 111 | 4.0 | 15.0 | 0.00 | 0.00 | 0.00 | 39 | 1014.6 |
| 20260503193505 | 60 | 195 | 6.0 | 15.0 | 0.00 | 0.00 | 0.00 | 37 | 1014.7 |
| 20260503193022 | 60 | 211 | 6.0 | 13.0 | 0.00 | 0.00 | 0.00 | 40 | 1014.7 |
| 20260503192506 | 59 | 202 | 5.0 | 14.0 | 0.00 | 0.00 | 0.00 | 39 | 1014.8 |
| 20260503192010 | 59 | 180 | 7.0 | 18.0 | 0.00 | 0.00 | 0.00 | 39 | 1015.0 |
| 20260503191520 | 59 | 244 | 5.0 | 18.0 | 0.00 | 0.00 | 0.00 | 40 | 1015.2 |
| 20260503191012 | 59 | 148 | 6.0 | 15.0 | 0.00 | 0.00 | 0.00 | 39 | 1015.3 |
| 20260503190508 | 59 | 284 | 4.0 | 14.0 | 0.00 | 0.00 | 0.00 | 40 | 1015.5 |
| 20260503190027 | 59 | 187 | 3.0 | 15.0 | 0.00 | 0.00 | 0.00 | 40 | 1015.5 |
| 20260503185508 | 59 | 238 | 5.0 | 15.0 | 0.00 | 0.00 | 0.00 | 39 | 1015.6 |
| 20260503185007 | 60 | 198 | 7.0 | 18.0 | 0.00 | 0.00 | 0.00 | 36 | 1015.6 |
| 20260503184513 | 60 | 169 | 7.0 | 18.0 | 0.00 | 0.00 | 0.00 | 39 | 1015.7 |
| 20260503184008 | 60 | 154 | 5.0 | 15.0 | 0.00 | 0.00 | 0.00 | 41 | 1015.7 |
| 20260503183505 | 60 | 164 | 6.0 | 15.0 | 0.00 | 0.00 | 0.00 | 39 | 1015.8 |
| 20260503183012 | 60 | 134 | 7.0 | 14.0 | 0.00 | 0.00 | 0.00 | 38 | 1015.9 |
| 20260503182505 | 59 | 131 | 7.0 | 14.0 | 0.00 | 0.00 | 0.00 | 38 | 1015.9 |
| 20260503182005 | 59 | 176 | 5.0 | 14.0 | 0.00 | 0.00 | 0.00 | 43 | 1016.0 |
| 20260503181516 | 60 | 148 | 6.0 | 13.0 | 0.00 | 0.00 | 0.00 | 39 | 1016.1 |
| 20260503181005 | 60 | 236 | 3.0 | 13.0 | 0.00 | 0.00 | 0.00 | 41 | 1016.1 |
| 20260503180508 | 60 | 304 | 5.0 | 13.0 | 0.00 | 0.00 | 0.00 | 43 | 1016.2 |
| 20260503180024 | 59 | 286 | 5.0 | 11.0 | 0.00 | 0.00 | 0.00 | 43 | 1016.2 |
| 20260503175507 | 59 | 172 | 3.0 | 12.0 | 0.00 | 0.00 | 0.00 | 41 | 1016.3 |
| 20260503175010 | 60 | 166 | 6.0 | 12.0 | 0.00 | 0.00 | 0.00 | 40 | 1016.3 |
| 20260503174525 | 60 | 165 | 4.0 | 15.0 | 0.00 | 0.00 | 0.00 | 44 | 1016.4 |
| 20260503174012 | 60 | 162 | 7.0 | 15.0 | 0.00 | 0.00 | 0.00 | 38 | 1016.5 |
| 20260503173504 | 60 | 180 | 4.0 | 15.0 | 0.00 | 0.00 | 0.00 | 42 | 1016.6 |
| 20260503173009 | 60 | 181 | 3.0 | 15.0 | 0.00 | 0.00 | 0.00 | 43 | 1016.5 |
| 20260503172504 | 60 | 275 | 4.0 | 11.0 | 0.00 | 0.00 | 0.00 | 42 | 1016.6 |
| 20260503172004 | 59 | 136 | 2.0 | 14.0 | 0.00 | 0.00 | 0.00 | 41 | 1016.6 |
| 20260503171516 | 59 | 205 | 5.0 | 15.0 | 0.00 | 0.00 | 0.00 | 39 | 1016.6 |
| 20260503171004 | 59 | 273 | 5.0 | 21.0 | 0.00 | 0.00 | 0.00 | 41 | 1016.8 |
| 20260503170507 | 59 | 162 | 3.0 | 21.0 | 0.00 | 0.00 | 0.00 | 47 | 1016.9 |
| 20260503131008 | 47 | 166 | 2.0 | 12.0 | 0.00 | 0.00 | 0.00 | 63 | 1018.3 |
| 20260503130509 | 46 | 290 | 4.0 | 12.0 | 0.00 | 0.00 | 0.00 | 67 | 1018.3 |
| 20260503110504 | 29 | 267 | 0.0 | 0.0 | 0.00 | 0.00 | 0.00 | 94 | 1017.8 |
| 20260503090507 | 28 | 267 | 0.0 | 0.0 | 0.00 | 0.00 | 0.00 | 94 | 1017.3 |
| 20260503081516 | 28 | 267 | 0.0 | 0.0 | 0.00 | 0.00 | 0.00 | 94 | 1017.1 |
| 20260503081004 | 28 | 267 | 0.0 | 0.0 | 0.00 | 0.00 | 0.00 | 94 | 1017.2 |
| 20260503072006 | 29 | 267 | 0.0 | 2.0 | 0.00 | 0.00 | 0.00 | 94 | 1017.2 |
| 20260503071514 | 29 | 267 | 0.0 | 2.0 | 0.00 | 0.00 | 0.00 | 94 | 1017.2 |
| 20260503071005 | 29 | 267 | 0.0 | 0.0 | 0.00 | 0.00 | 0.00 | 94 | 1017.3 |
| 20260503055007 | 30 | 267 | 0.0 | 0.0 | 0.00 | 0.00 | 0.00 | 92 | 1017.4 |
| 20260503054525 | 30 | 267 | 0.0 | 0.0 | 0.00 | 0.00 | 0.00 | 92 | 1017.4 |
| 20260503053508 | 30 | 267 | 0.0 | 0.0 | 0.00 | 0.00 | 0.00 | 92 | 1017.4 |
| 20260503053032 | 31 | 267 | 0.0 | 0.0 | 0.00 | 0.00 | 0.00 | 92 | 1017.4 |
| 20260503052511 | 31 | 267 | 0.0 | 0.0 | 0.00 | 0.00 | 0.00 | 91 | 1017.4 |
| 20260503051526 | 31 | 267 | 0.0 | 0.0 | 0.00 | 0.00 | 0.00 | 91 | 1017.5 |
| 20260503051010 | 31 | 267 | 0.0 | 0.0 | 0.00 | 0.00 | 0.00 | 91 | 1017.5 |
| 20260503050505 | 31 | 267 | 0.0 | 0.0 | 0.00 | 0.00 | 0.00 | 91 | 1017.6 |
| 20260503050010 | 32 | 267 | 0.0 | 0.0 | 0.00 | 0.00 | 0.00 | 91 | 1017.6 |
| 20260503045006 | 32 | 267 | 0.0 | 0.0 | 0.00 | 0.00 | 0.00 | 91 | 1017.5 |
| 20260503044000 | 32 | 267 | 0.0 | 0.0 | 0.00 | 0.00 | 0.00 | 90 | 1017.4 |
| 20260503043501 | 32 | 267 | 0.0 | 0.0 | 0.00 | 0.00 | 0.00 | 89 | 1017.4 |
| 20260503043008 | 32 | 267 | 0.0 | 0.0 | 0.00 | 0.00 | 0.00 | 89 | 1017.4 |
| 20260503042501 | 33 | 267 | 0.0 | 0.0 | 0.00 | 0.00 | 0.00 | 88 | 1017.5 |
| 20260503042001 | 33 | 267 | 0.0 | 0.0 | 0.00 | 0.00 | 0.00 | 88 | 1017.5 |
| 20260503041511 | 33 | 267 | 0.0 | 0.0 | 0.00 | 0.00 | 0.00 | 88 | 1017.5 |
| 20260503041003 | 33 | 267 | 0.0 | 0.0 | 0.00 | 0.00 | 0.00 | 88 | 1017.5 |
| 20260503040504 | 34 | 267 | 0.0 | 0.0 | 0.00 | 0.00 | 0.00 | 88 | 1017.5 |
| 20260503040012 | 34 | 267 | 0.0 | 0.0 | 0.00 | 0.00 | 0.00 | 88 | 1017.6 |
| 20260503035508 | 34 | 267 | 0.0 | 0.0 | 0.00 | 0.00 | 0.00 | 87 | 1017.6 |